Wind_Speed
17 17 16 15 14 13 14 14 14 13 12 12 11 10 9 9 9 9 9 9 8 9 9 9 9 9 9 9 8 8 8 7 7 8 8 8 7 7 5 5 6 6 6 6 6 5 5 6 6 6 6 6 6 7 7 7 7 7 7 7 7 7 6 7 9 10 10 10 11 11 11 11 10 10 11 12 12 12 13 13 14 14 14 13 14
17 16 15 15 15 15 14 14 14 14 14 13 12 11 11 10 10 9 9 9 9 9 10 10 9 9 9 8 8 8 7 7 8 8 8 8 8 8 7 7 7 7 6 6 6 6 6 6 6 6 6 6 6 7 7 7 7 7 7 7 7 7 7 8 9 10 11 11 11 12 11 10 10 10 11 12 12 12 12 13 12 13 12 12 13
16 16 15 15 16 15 15 14 14 15 15 14 13 13 12 12 11 11 10 10 10 10 10 10 10 9 9 8 8 8 8 8 8 8 7 7 7 7 7 7 7 7 7 7 7 6 6 6 6 6 6 6 6 6 7 7 7 7 7 8 8 8 8 8 8 10 11 11 11 12 11 10 10 11 10 10 11 11 12 12 12 12 12 12 13
16 16 16 16 15 15 15 15 15 15 16 15 14 14 13 13 12 12 11 10 10 10 10 10 10 10 9 9 9 8 8 8 9 8 8 8 8 8 7 7 8 8 8 7 7 6 6 6 6 6 5 5 6 6 6 6 6 6 7 7 8 8 8 8 9 10 11 12 12 11 11 11 10 10 10 10 10 11 12 12 12 13 12 12 13
16 16 15 15 15 15 15 15 15 15 16 16 15 15 14 13 12 12 12 12 10 10 10 10 10 10 10 10 10 10 9 9 9 9 9 8 8 8 8 8 8 8 8 8 7 7 7 7 6 6 6 6 6 6 5 5 5 6 6 6 6 7 7 8 9 9 11 12 12 11 11 11 10 9 9 10 11 11 12 12 12 12 12 12 13
16 15 15 15 15 15 14 14 14 15 15 15 15 14 14 14 13 13 13 13 12 11 11 11 11 11 11 10 10 10 10 10 10 9 9 9 9 9 9 8 8 8 8 8 8 8 8 7 7 6 6 7 6 6 5 5 6 6 6 6 7 7 7 8 8 9 10 11 12 12 11 10 10 9 9 9 11 12 12 12 12 11 11 12 13
16 16 15 15 15 15 14 14 13 13 14 14 13 13 14 14 14 13 13 13 13 12 12 12 11 11 11 11 11 11 10 10 10 10 10 9 9 9 9 9 9 8 8 8 8 8 8 8 8 7 7 7 6 6 6 6 6 6 6 6 7 8 9 9 9 9 10 11 12 11 11 10 10 11 10 9 10 11 11 12 13 12 12 12 13
17 16 16 16 16 16 15 14 13 12 12 12 12 12 12 13 13 13 13 13 14 13 13 12 12 12 12 12 11 11 11 11 11 10 10 10 9 10 9 9 9 8 8 8 8 8 8 9 9 8 8 7 6 6 6 6 6 6 6 7 7 8 9 9 9 10 10 11 12 11 11 11 11 11 10 9 10 11 12 13 14 14 14 14 14
17 17 17 16 15 15 14 13 12 12 12 11 11 11 12 12 12 12 12 12 13 13 12 12 11 11 11 11 11 11 11 11 11 11 10 9 9 9 9 9 9 8 8 8 8 8 8 9 9 8 7 8 8 9 8 8 8 8 8 7 8 9 9 9 10 10 10 11 12 12 12 12 11 11 11 10 12 13 13 13 14 15 16 17 16
16 16 16 15 14 13 13 12 11 10 11 11 11 11 11 12 12 11 11 11 11 11 11 11 10 10 10 10 11 11 11 11 12 12 11 9 9 9 8 8 8 8 8 8 8 9 9 9 9 8 9 11 11 10 9 9 9 9 10 9 9 10 10 11 11 11 11 12 12 12 13 13 12 12 12 13 14 14 14 14 15 16 17 17 17
15 15 14 14 13 13 12 11 11 10 10 10 10 10 10 9 10 10 10 10 10 9 10 10 10 11 10 10 11 11 11 10 11 12 12 11 10 9 9 10 9 9 9 10 9 9 10 9 9 9 10 11 9 7 8 10 9 9 10 10 11 11 11 12 12 11 12 12 13 13 13 14 13 13 15 16 15 14 14 14 15 16 16 16 16
15 13 13 13 13 13 12 12 12 11 10 10 10 9 8 7 7 7 8 9 9 9 9 9 10 10 9 10 10 9 8 10 12 12 12 12 11 11 11 11 11 11 11 10 10 9 9 9 9 9 9 9 9 8 9 10 10 10 10 11 11 12 12 13 13 12 12 13 14 14 14 14 14 14 15 16 15 15 15 15 15 16 16 16 17
15 14 13 14 14 13 13 13 13 13 12 10 8 7 7 6 6 6 6 6 7 8 9 9 9 9 9 9 7 5 7 11 12 12 12 12 11 11 11 11 11 11 11 10 10 9 8 8 9 9 8 8 8 8 8 9 10 10 11 12 13 13 13 13 13 14 14 14 14 15 15 15 15 15 15 15 16 17 17 17 17 17 18 18 19
15 15 15 15 15 13 12 12 13 14 13 11 9 9 9 8 8 9 9 8 6 8 10 10 9 9 8 7 5 5 9 10 9 10 10 10 10 10 10 11 12 11 10 10 9 9 8 8 8 8 8 7 6 7 6 7 8 9 10 12 13 13 14 15 15 15 15 15 15 16 16 15 16 16 15 14 14 15 15 17 18 18 19 20 21
13 14 14 14 13 12 12 12 13 14 13 12 12 13 13 13 12 13 15 15 12 10 10 10 9 8 7 6 4 3 6 8 7 8 9 9 9 9 8 10 11 10 9 8 7 7 7 8 8 8 7 6 7 9 8 7 8 9 10 12 13 13 15 16 16 15 15 15 15 16 16 15 15 16 15 14 15 17 18 19 20 19 20 21 22
11 11 11 12 11 11 11 11 12 12 12 12 13 15 16 16 16 15 15 14 12 10 9 9 8 6 5 6 5 2 2 5 6 6 7 7 8 7 7 9 9 9 8 6 6 6 5 5 6 7 5 6 9 11 10 9 9 9 10 12 13 14 15 15 16 17 17 16 16 17 17 18 18 18 19 19 20 21 20 19 19 19 20 20 21
11 11 10 10 11 12 11 12 12 12 12 12 13 14 14 14 14 14 14 12 11 10 9 8 8 8 7 7 6 3 1 4 4 5 6 6 6 7 7 7 7 7 7 6 5 4 4 4 4 4 3 5 8 10 9 8 7 8 9 11 12 14 15 15 16 17 15 15 16 18 19 20 21 21 21 22 21 20 18 17 17 18 19 19 19
15 15 15 15 15 16 15 15 15 14 13 13 13 13 13 13 14 14 15 15 14 14 13 11 9 9 8 7 6 5 3 1 2 3 5 6 7 6 6 7 7 7 6 6 4 3 3 4 3 3 4 6 7 9 9 8 8 8 10 11 12 13 14 14 14 14 13 14 16 18 19 20 20 21 22 22 21 19 17 18 17 18 20 19 18
16 16 16 16 17 16 16 16 16 16 14 14 14 14 14 14 15 15 15 16 16 15 14 13 13 12 10 9 8 8 7 6 3 2 1 3 5 3 3 6 6 5 5 5 4 1 2 2 3 3 5 7 9 9 9 9 9 10 10 11 12 12 13 13 13 13 14 15 16 17 19 19 20 20 21 21 21 19 19 18 17 17 18 18 17
15 15 14 15 15 15 15 15 15 17 18 17 16 15 16 16 16 16 16 16 16 16 14 14 15 13 9 8 9 9 9 9 7 6 5 3 2 2 1 1 2 3 4 5 3 1 0 1 4 6 7 8 9 10 10 10 11 11 10 10 11 11 13 13 14 15 16 16 17 18 20 20 20 19 19 18 18 18 18 18 16 16 17 16 16
15 15 15 16 15 15 16 15 15 16 16 15 14 15 16 16 16 16 16 16 15 15 14 13 14 13 10 8 9 9 9 9 9 8 8 7 5 4 5 4 2 2 4 4 3 2 2 3 6 9 9 9 9 10 10 11 11 10 9 10 11 13 14 15 15 16 16 16 17 18 19 19 18 17 17 16 16 17 17 16 16 17 19 18 16
15 16 17 16 15 16 17 18 16 15 14 14 14 16 15 15 15 15 15 15 14 13 12 12 12 11 10 9 10 12 11 10 10 10 10 9 8 7 7 7 6 4 2 3 3 4 3 4 7 9 9 9 8 8 7 8 8 8 8 11 13 13 14 14 14 14 15 16 16 16 18 17 17 18 18 17 18 19 18 18 19 20 21 20 18
16 17 17 16 15 16 17 18 16 14 14 15 15 14 14 14 14 14 13 14 15 14 12 11 11 11 10 10 11 13 14 12 12 13 13 12 11 10 9 8 7 7 5 5 5 5 4 5 7 9 9 9 7 7 7 6 5 6 8 9 10 10 11 11 11 11 13 14 14 15 15 15 16 19 19 17 18 19 19 20 21 22 21 21 20
17 18 17 16 16 16 17 17 16 14 14 15 14 13 13 12 11 11 11 12 14 14 12 11 11 11 10 10 10 11 13 13 13 14 14 13 13 12 12 10 9 10 9 8 6 6 7 7 8 9 9 8 7 7 8 7 5 6 7 7 7 8 8 8 9 10 11 12 13 13 14 16 17 18 19 20 20 20 20 20 20 21 21 21 21
17 17 16 16 15 16 17 17 16 15 14 14 14 13 13 12 10 9 8 10 12 12 10 10 11 11 10 10 9 8 9 11 12 12 12 12 11 11 11 11 11 11 11 9 8 9 9 9 9 9 8 8 7 6 7 7 7 7 7 6 7 8 8 8 9 9 10 11 12 12 13 15 17 18 19 20 20 20 19 19 19 20 21 21 21
16 16 15 15 15 16 16 16 15 14 14 14 13 11 12 13 11 8 6 7 8 9 8 8 10 11 10 9 8 7 7 7 8 8 9 9 9 10 10 9 9 10 10 9 9 10 10 10 9 9 8 7 7 6 6 7 8 8 8 8 7 7 8 8 9 9 10 11 11 12 13 15 17 18 17 17 18 18 18 19 20 20 21 21 22
14 14 14 14 14 14 14 14 13 13 13 13 12 10 10 11 10 9 7 7 6 6 7 8 8 9 9 8 8 7 6 5 5 6 6 6 6 7 8 8 9 9 9 9 8 8 8 9 8 8 7 7 6 5 6 7 8 8 9 8 7 7 8 9 9 8 9 10 10 12 13 14 14 15 14 15 16 16 17 19 20 20 21 22 22
13 13 13 13 12 12 13 13 13 12 11 11 10 10 9 9 9 9 8 7 6 6 6 7 7 7 7 7 6 5 5 5 6 6 7 7 6 6 7 7 7 7 9 9 7 6 6 7 6 6 6 5 5 5 5 7 8 8 9 8 7 7 8 9 8 8 8 9 10 11 12 12 12 13 14 13 13 14 16 18 19 19 20 20 19
11 12 12 11 11 12 12 11 11 11 12 12 12 11 10 9 10 11 9 8 8 7 7 6 6 5 5 4 4 3 3 4 5 6 7 7 8 8 8 8 8 8 9 10 7 5 5 5 5 6 6 6 6 7 7 8 8 7 8 8 7 8 9 8 8 9 9 9 10 10 11 11 11 12 12 12 13 14 15 16 17 17 17 17 16
10 11 10 11 11 11 10 10 10 11 12 12 13 13 12 11 11 11 10 9 7 7 7 8 8 7 7 6 5 4 5 5 5 6 6 7 8 9 9 10 10 10 10 10 7 5 5 5 6 7 7 7 8 8 8 9 9 8 8 8 8 8 9 8 9 10 10 10 10 10 11 11 11 11 11 12 13 14 14 14 15 15 15 15 16
10 10 9 9 9 10 10 10 10 10 11 12 12 13 13 12 11 10 8 7 6 6 7 7 8 8 9 8 6 5 6 6 5 4 5 5 7 8 9 11 12 12 10 9 7 5 6 6 6 7 7 7 7 8 8 8 8 9 9 8 8 9 9 9 10 11 10 10 10 10 10 11 11 11 12 12 13 14 14 13 13 13 13 14 15
9 9 9 9 9 9 10 10 10 10 11 11 11 11 11 11 11 10 8 7 6 6 7 7 7 7 8 8 6 5 4 4 4 3 3 4 5 7 9 12 14 13 11 8 6 6 6 6 7 7 7 7 7 8 8 8 8 8 8 8 8 8 9 10 11 11 10 10 11 11 10 11 12 12 12 12 13 13 13 13 13 13 13 14 14
7 8 9 10 9 9 9 9 9 9 9 8 8 9 9 8 8 8 8 7 6 5 5 5 6 6 6 6 6 5 4 4 3 2 1 2 4 7 8 9 11 12 11 8 6 6 7 6 7 7 7 7 7 8 8 8 8 8 7 8 8 8 9 10 10 9 9 10 11 10 10 11 12 13 13 12 12 13 13 13 13 13 13 14 15
7 8 8 8 8 8 8 8 8 7 6 6 6 6 6 6 6 6 6 5 4 4 3 3 2 2 3 3 3 2 2 1 0 0 0 1 3 6 6 6 6 7 8 7 6 6 7 7 7 7 7 7 7 8 8 8 8 8 8 8 8 8 9 9 9 9 10 11 10 10 11 11 12 13 13 13 13 13 13 13 13 13 14 15 15
8 8 8 8 8 7 7 6 6 6 6 5 5 5 5 5 5 5 4 4 3 4 4 3 2 2 2 2 1 2 2 2 2 2 1 2 3 5 6 6 5 4 5 5 6 6 7 7 7 7 7 8 8 8 8 9 9 9 9 9 9 9 9 9 9 10 11 11 11 11 11 12 12 12 13 13 14 14 13 13 14 14 15 15 16
8 8 8 7 6 6 5 4 3 3 3 4 4 4 4 5 5 5 4 4 4 3 3 2 0 2 3 4 4 3 3 3 2 2 2 2 3 5 6 6 5 4 5 5 6 6 7 7 7 7 8 8 8 9 9 9 9 9 9 10 10 10 10 10 10 11 11 11 11 11 12 12 12 12 13 13 13 14 14 15 15 16 16 16 17
7 7 7 6 4 4 5 4 3 3 3 3 4 4 5 5 5 5 5 5 4 4 3 3 3 2 1 2 4 5 4 3 2 1 2 3 4 5 5 5 5 5 5 5 6 7 7 7 7 8 8 8 9 9 9 10 10 10 10 10 10 10 10 11 12 12 11 11 11 11 12 12 12 12 13 13 14 14 15 15 16 17 17 18 18
4 4 6 6 5 5 6 5 4 5 6 6 6 6 6 6 5 5 5 4 4 4 4 3 3 3 2 1 3 4 4 3 3 2 2 3 5 5 5 6 6 5 5 6 6 7 7 7 8 8 8 9 9 10 10 10 10 10 11 11 11 11 11 11 11 11 11 11 11 11 12 12 12 13 13 14 15 15 15 16 17 18 18 18 17
4 4 7 8 7 6 7 6 6 7 8 8 7 7 7 6 5 5 5 5 4 4 4 3 2 2 2 3 4 5 6 5 3 3 3 4 4 5 5 6 6 6 6 6 6 7 7 8 8 8 9 10 10 10 10 11 11 11 11 11 11 11 11 11 11 11 12 12 12 12 13 13 13 13 14 14 15 16 17 17 18 18 18 18 18
6 7 9 10 8 7 7 7 7 7 8 7 7 8 7 6 5 5 4 4 5 4 3 3 2 2 2 2 4 7 7 5 3 2 3 4 4 4 5 6 6 6 6 7 7 8 8 9 9 10 10 10 11 11 11 12 12 12 11 11 12 12 12 12 13 13 13 13 13 14 14 14 14 15 15 15 16 16 18 18 18 18 18 19 19
6 7 8 9 8 7 7 7 7 7 7 7 7 8 8 6 5 4 4 4 4 4 4 4 3 2 3 4 7 8 8 6 5 4 4 4 5 5 6 6 6 7 7 8 8 9 9 10 10 11 11 11 11 12 12 12 13 13 13 13 13 13 13 13 14 14 15 15 15 15 15 15 16 16 16 17 17 17 17 18 18 18 19 19 20
6 7 8 8 8 8 7 8 7 7 7 7 7 8 8 6 5 4 4 4 4 3 4 4 3 3 4 5 9 8 7 6 5 5 5 5 5 6 6 6 7 7 8 8 9 9 10 10 11 11 11 12 12 13 13 13 14 14 14 14 14 15 15 15 15 15 16 16 16 16 17 18 18 17 17 17 18 17 17 18 18 19 19 20 20
6 6 7 8 8 7 7 8 8 8 8 8 8 8 7 6 5 5 5 5 4 4 4 4 3 3 4 3 6 4 5 5 5 5 5 6 6 6 7 7 8 8 8 8 9 9 10 11 12 12 12 13 13 13 14 14 14 14 15 15 15 15 15 15 16 16 17 17 17 18 18 19 19 18 17 17 18 18 18 18 19 19 20 20 20
6 7 7 7 7 7 7 8 8 8 8 8 8 8 7 6 5 5 5 5 4 4 4 3 2 2 3 3 3 2 3 4 4 5 5 6 6 7 7 8 8 8 9 8 8 9 10 12 12 13 13 14 13 14 14 14 14 14 15 15 15 16 16 17 17 17 17 17 18 18 19 19 19 19 18 17 18 19 19 20 20 20 20 21 21
7 7 8 8 7 8 8 8 8 8 9 9 8 8 7 6 5 5 4 4 4 3 3 2 2 1 2 3 3 3 3 4 4 5 6 6 6 6 7 8 8 8 8 9 10 10 12 13 13 14 14 14 14 14 14 14 14 15 14 15 15 16 16 15 14 14 14 15 17 19 20 20 20 20 20 20 20 20 21 21 21 21 22 22 22
7 7 8 8 8 8 8 8 8 8 8 8 7 7 6 6 5 4 3 3 3 3 3 2 2 2 3 3 3 3 4 4 5 5 6 6 7 7 8 8 7 6 7 9 11 12 13 13 14 14 14 14 14 15 15 14 14 14 14 14 15 14 13 13 14 15 16 17 19 21 21 21 21 21 21 22 22 21 21 22 22 22 23 22 23
8 8 8 8 8 8 8 7 7 7 7 6 6 6 6 5 5 4 3 2 2 3 3 3 3 3 2 2 3 3 4 5 5 6 6 7 7 8 8 7 7 7 9 11 12 12 13 14 14 14 14 15 15 15 14 14 14 14 13 13 13 13 15 16 18 19 18 18 20 21 21 22 22 22 22 22 22 22 22 23 23 23 23 23 23
8 8 8 8 8 8 8 8 7 7 7 6 6 5 5 5 4 4 4 3 3 3 3 3 2 2 2 2 3 4 5 5 6 6 7 7 7 7 7 7 8 9 11 11 12 12 13 13 13 14 14 14 14 14 13 13 13 13 12 11 12 14 17 18 19 19 17 17 18 19 20 22 22 22 23 22 22 22 23 23 22 23 23 23 23
9 9 9 9 8 8 8 8 8 7 7 6 6 6 6 5 5 4 3 3 3 2 2 1 1 1 2 3 4 5 5 5 6 7 7 7 7 8 8 9 9 10 10 11 11 12 12 12 12 13 13 13 13 12 12 12 12 11 11 12 13 15 17 18 17 17 17 17 17 18 19 21 22 23 23 22 22 22 22 22 22 23 23 23 23
9 9 9 8 8 8 7 7 7 6 6 6 6 6 5 5 5 4 3 3 3 2 2 1 1 2 3 3 4 5 5 6 6 6 7 7 8 8 9 9 9 9 10 11 11 11 11 11 11 11 12 12 11 11 11 11 10 9 11 13 15 16 16 16 15 16 18 20 20 20 19 20 22 23 23 22 22 22 22 21 21 22 22 23 24
9 9 8 8 8 7 7 7 6 6 6 5 5 5 5 5 4 4 3 3 3 2 1 1 1 2 3 3 4 5 5 6 6 7 7 8 8 8 9 9 9 10 10 11 11 11 11 11 11 11 11 11 11 10 10 9 9 10 13 15 16 16 15 15 17 19 20 22 23 22 19 18 20 21 21 22 22 22 22 22 22 22 22 22 23
Wind_Direction
199 201 203 204 203 202 202 203 205 207 205 205 207 207 204 204 205 203 203 205 204 200 201 203 202 204 206 207 208 205 203 209 209 207 212 214 220 227 219 215 229 239 242 247 250 248 249 253 255 257 259 260 265 270 271 266 262 264 268 272 277 283 286 289 293 297 303 308 309 309 313 314 311 311 312 310 310 312 312 310 308 307 307 308 312
197 199 201 203 204 204 205 204 204 208 208 206 208 207 204 202 202 204 204 203 202 199 198 200 202 205 209 207 208 205 202 209 214 212 214 216 220 225 221 219 227 232 235 239 241 240 240 246 251 252 251 251 258 265 270 273 273 272 271 274 280 285 288 290 292 295 300 308 310 309 310 311 310 312 312 310 312 313 312 312 311 310 310 311 313
193 194 197 200 203 204 205 206 205 207 208 209 209 207 204 202 202 206 208 204 202 203 202 199 198 202 208 205 204 207 205 210 216 215 217 220 226 232 229 224 227 230 232 234 234 235 235 238 244 247 245 243 251 262 270 273 276 279 278 278 281 282 285 286 285 289 296 303 307 308 311 312 309 310 309 308 310 311 311 312 312 312 313 312 311
189 189 193 196 200 203 205 207 208 207 208 209 211 210 206 202 203 206 211 210 205 205 206 203 198 198 205 205 204 208 209 210 214 215 219 223 228 235 234 231 233 235 235 236 236 234 236 238 240 240 240 240 245 253 260 263 266 272 271 270 272 275 280 279 276 281 289 295 299 303 307 308 304 306 310 309 308 309 309 310 309 310 311 310 309
185 186 189 191 196 201 202 206 209 209 210 209 210 213 212 209 206 207 211 212 207 205 207 206 203 202 206 208 207 209 210 212 216 219 220 221 223 227 230 230 233 235 236 238 239 238 240 241 239 237 236 239 244 247 249 254 261 266 268 271 274 277 279 279 278 280 282 288 295 298 299 299 298 303 309 309 309 310 309 307 308 310 312 311 311
185 185 188 189 194 200 202 205 208 209 211 212 212 213 215 216 214 213 213 213 210 207 206 206 207 208 210 211 210 211 213 216 219 222 224 222 221 224 227 229 231 234 236 237 237 237 238 238 239 240 239 241 247 251 251 254 259 263 267 273 277 279 279 278 277 278 280 284 289 291 293 295 297 301 304 306 307 309 310 311 311 313 316 317 316
184 186 190 191 191 195 200 203 206 209 210 213 214 214 215 217 219 219 218 216 214 213 211 209 208 210 213 215 215 215 216 218 219 223 226 225 222 225 228 228 229 230 233 237 239 237 235 236 236 236 239 244 248 251 252 254 257 260 264 268 272 276 279 280 280 280 281 283 285 287 291 295 297 299 300 298 296 300 307 312 313 314 317 318 315
186 188 192 194 191 191 196 202 206 211 211 212 216 217 217 218 220 222 222 220 220 220 219 216 213 214 217 219 222 220 218 220 221 221 226 228 227 227 229 232 232 231 232 234 237 237 236 235 235 234 234 235 242 252 256 259 262 264 267 271 275 277 280 284 285 284 283 284 285 288 292 293 294 296 299 300 298 302 309 311 309 309 311 312 310
188 188 191 194 193 189 189 193 198 206 209 211 214 217 219 220 220 221 223 225 226 227 228 227 222 221 222 223 228 229 225 223 222 220 222 225 230 232 232 234 237 238 239 240 240 240 239 239 238 236 229 231 247 260 262 259 263 267 270 273 276 278 282 284 285 284 284 285 286 288 290 290 291 295 301 304 303 304 309 309 307 308 311 310 307
192 191 193 195 194 187 182 181 181 189 201 206 210 214 218 219 220 220 221 226 231 230 230 232 230 228 227 227 230 232 233 230 223 221 224 225 230 236 235 236 241 243 245 246 246 244 243 244 243 240 243 254 264 268 267 262 262 264 267 269 272 277 280 281 280 282 283 285 287 288 289 290 294 301 303 302 302 305 309 310 308 309 312 309 307
197 194 195 193 188 181 179 179 175 178 190 196 201 208 213 216 220 220 221 224 227 228 229 232 235 234 232 231 231 232 234 230 221 225 237 243 241 242 241 239 239 241 242 243 246 247 247 248 246 242 246 257 265 271 275 274 271 268 268 268 269 270 272 274 276 278 281 282 284 286 289 292 296 301 300 300 305 308 309 307 304 304 305 304 303
206 202 200 197 192 186 186 191 190 192 197 196 195 201 205 209 215 219 224 225 222 224 230 231 233 234 233 234 236 232 226 226 229 238 250 255 250 247 246 245 242 241 241 242 245 250 252 253 255 253 248 249 255 262 269 273 273 271 270 270 268 266 264 264 266 269 273 278 282 283 286 291 294 296 298 303 307 306 302 299 297 296 296 296 297
209 206 203 199 196 190 188 193 196 199 202 199 195 194 189 191 203 210 217 227 228 227 226 224 226 230 232 233 232 225 227 233 241 247 250 251 249 245 245 248 248 246 245 245 247 250 256 258 261 264 262 260 261 259 255 259 267 273 274 273 271 270 268 267 264 263 264 266 271 275 278 283 287 289 293 299 299 297 295 295 294 293 292 292 292
207 205 203 201 197 193 190 193 197 198 198 195 189 181 175 180 193 195 189 191 210 225 223 219 219 221 221 215 203 219 234 237 242 244 243 245 245 241 244 248 249 247 246 248 250 251 254 259 262 266 268 267 262 256 254 260 268 272 271 270 270 271 272 273 272 272 269 264 262 266 271 275 280 286 291 293 292 293 294 295 295 295 292 289 286
201 201 200 198 194 191 193 196 199 198 193 184 180 181 181 182 185 188 191 190 194 207 214 212 212 214 209 192 169 201 234 230 233 239 239 245 246 245 250 253 252 250 245 245 249 253 258 264 266 269 271 266 253 251 260 273 274 272 271 269 269 269 268 268 269 269 269 266 262 264 269 272 275 279 282 281 280 281 283 287 290 291 288 287 285
184 188 190 189 184 182 185 186 189 192 186 173 169 174 181 185 186 191 195 190 183 188 195 196 198 201 194 176 152 120 224 224 231 238 238 244 248 249 254 258 257 254 249 246 249 252 260 267 274 280 278 262 256 261 270 278 276 274 273 272 273 272 270 268 268 269 271 271 267 265 269 273 274 275 277 279 280 281 281 282 282 282 282 283 286
141 148 152 159 162 158 154 153 155 162 162 153 149 155 162 171 181 188 182 165 156 162 165 165 177 178 166 156 143 113 161 226 240 247 247 247 245 248 255 259 260 257 250 249 252 252 254 264 288 306 282 247 255 271 282 285 280 274 274 277 280 278 276 275 272 272 278 282 283 283 286 288 289 289 290 289 288 286 279 273 275 279 280 281 284
113 115 117 122 129 131 127 128 133 137 139 138 138 144 150 154 164 171 163 148 142 144 143 138 136 133 123 120 117 104 100 129 244 253 253 244 234 244 262 260 258 259 253 251 254 252 251 254 264 273 261 257 268 279 284 285 284 282 281 282 283 284 288 293 290 286 287 289 293 298 301 301 301 301 299 296 293 286 271 264 271 279 279 279 283
105 104 106 109 113 117 118 123 128 128 128 130 132 139 147 149 150 150 144 138 134 134 135 130 115 103 99 99 93 87 87 82 62 36 307 232 215 228 285 271 259 263 266 265 268 253 242 270 293 289 281 285 290 290 291 291 289 290 288 285 284 286 293 302 306 304 300 296 296 298 298 298 298 296 294 294 293 288 275 266 270 276 276 280 287
102 104 106 103 103 106 109 112 116 118 122 126 128 135 139 137 135 133 127 124 124 124 125 121 112 106 104 100 88 82 84 80 65 56 56 63 135 126 40 316 285 313 308 290 279 254 177 359 342 325 308 302 301 299 296 291 289 291 292 291 290 287 286 293 297 297 297 295 293 293 293 294 293 289 287 287 287 285 278 269 265 270 274 275 278
97 98 99 97 97 98 99 100 101 106 114 118 120 124 128 127 126 124 119 116 116 115 115 115 112 108 100 93 90 88 86 80 70 63 62 62 69 79 78 85 91 13 334 316 313 338 16 11 345 331 322 318 317 312 305 300 298 297 293 290 288 285 286 293 295 293 295 296 295 298 300 298 296 294 293 294 295 293 288 281 279 282 283 282 283
100 97 96 96 96 98 102 104 103 103 108 113 113 115 118 120 121 121 119 119 115 104 99 102 105 101 91 85 88 88 82 77 73 68 63 61 62 64 67 75 87 76 18 354 5 2 357 353 343 342 348 352 345 335 329 326 321 313 301 296 298 299 302 304 300 296 300 302 302 307 306 301 302 304 304 307 310 309 304 300 300 298 293 292 295
107 104 103 102 101 102 103 102 101 104 109 112 109 108 109 112 116 118 118 120 115 105 98 98 98 93 86 83 85 86 82 79 77 73 68 65 63 63 62 66 78 77 59 40 32 18 8 3 354 356 7 12 6 356 356 2 357 335 320 316 323 328 327 322 315 313 316 315 314 316 316 316 319 318 317 320 321 320 317 312 307 304 299 296 295
110 107 107 106 104 103 101 100 100 102 105 107 103 101 102 104 109 113 115 116 114 111 112 112 106 99 94 90 85 82 82 82 79 75 71 67 64 63 59 57 65 69 61 52 43 28 17 9 0 0 4 5 6 3 356 358 360 344 336 343 356 356 350 343 340 341 342 338 333 333 336 339 340 336 332 330 326 321 318 314 311 309 307 305 303
114 113 114 112 109 108 106 108 110 108 105 104 100 98 102 104 101 105 115 119 119 121 129 129 119 112 108 102 92 84 81 81 79 77 74 68 63 61 57 53 56 60 56 50 44 32 21 12 6 4 1 358 6 7 350 342 344 342 346 0 8 3 360 359 358 355 351 347 343 342 342 341 339 336 334 332 328 325 324 322 321 320 317 314 310
121 121 121 119 118 117 114 114 114 110 106 104 101 101 108 108 102 98 103 110 116 126 136 137 132 131 129 125 120 113 102 93 84 76 70 63 55 53 52 48 50 52 45 35 30 22 13 9 9 10 9 8 16 15 356 351 355 354 358 6 7 3 1 360 358 354 346 341 337 334 333 331 331 331 332 332 331 332 335 334 331 328 327 326 320
128 127 127 126 125 124 121 119 117 113 109 108 106 105 107 107 102 98 98 100 109 125 133 134 137 141 139 136 136 131 119 104 87 69 62 58 46 40 40 36 36 37 30 21 18 10 4 5 7 9 13 16 19 17 9 9 12 9 7 8 7 5 359 353 351 347 338 333 329 325 325 326 327 329 332 332 330 330 335 335 330 327 328 329 326
139 136 133 131 129 127 124 122 120 115 108 103 99 96 94 92 91 95 104 109 111 119 124 123 125 130 131 132 138 139 120 93 76 66 62 59 50 41 35 30 27 23 16 16 15 2 359 6 9 7 7 6 6 10 12 14 15 14 12 9 8 8 3 358 357 354 343 335 330 326 325 325 323 323 325 326 325 325 327 328 325 322 323 324 322
150 145 140 137 135 133 130 127 125 116 106 99 95 93 94 91 87 91 103 114 118 119 115 107 101 99 99 104 122 135 119 92 79 73 64 57 55 52 42 36 32 20 16 23 26 5 355 8 16 13 11 11 9 8 8 9 10 12 13 10 7 7 7 6 3 357 349 342 337 332 329 326 323 323 324 324 324 324 324 325 323 320 319 318 315
155 151 149 147 147 146 140 134 130 124 115 107 100 96 97 99 96 95 99 105 113 118 114 111 109 101 91 90 99 112 113 104 93 81 67 54 50 46 37 31 25 15 16 30 35 15 6 14 20 18 15 15 14 9 5 4 3 1 2 5 5 5 6 6 2 355 349 345 341 336 333 331 329 331 333 330 327 325 325 324 323 321 320 318 315
157 159 154 145 144 146 141 138 138 135 128 122 114 104 98 97 98 100 101 102 103 103 102 106 112 111 107 101 92 90 97 98 90 78 64 50 42 35 25 18 12 8 18 34 32 14 12 17 19 18 14 14 15 9 2 2 1 356 354 355 359 1 2 0 357 351 346 344 342 338 336 335 334 334 333 329 326 325 326 327 325 323 322 320 317
156 154 144 132 133 137 134 134 139 139 137 138 135 128 119 110 105 104 103 102 101 99 99 101 104 111 120 123 114 103 101 99 93 84 66 48 35 25 21 20 16 17 30 42 31 15 16 17 16 14 10 8 10 6 0 359 357 353 350 349 350 355 357 355 350 346 344 343 340 337 336 336 334 331 328 326 325 324 325 326 326 324 322 319 317
147 137 138 142 145 143 137 134 137 139 143 150 152 149 146 139 128 120 112 103 90 82 84 90 97 103 114 125 128 124 115 106 101 97 72 36 17 16 21 27 28 30 37 37 25 17 16 12 11 10 6 4 3 359 357 357 353 349 348 347 345 347 349 346 343 342 343 340 335 333 335 335 333 329 326 324 323 322 322 323 323 323 322 320 318
128 121 132 142 138 132 131 132 135 141 149 160 165 165 164 158 151 149 148 139 122 98 71 50 56 88 99 102 107 105 96 92 57 320 312 328 358 11 12 4 11 30 37 31 21 17 11 5 6 4 360 358 356 354 352 352 349 346 344 343 342 343 343 341 341 342 340 335 332 333 334 333 331 328 325 323 322 320 319 321 322 324 324 321 319
130 125 135 144 141 138 140 140 144 153 164 173 173 171 174 180 180 183 186 183 167 142 117 82 39 15 4 353 339 337 339 327 316 309 287 289 340 360 351 335 337 8 21 16 13 9 2 360 360 357 354 352 350 348 347 345 344 344 342 341 340 339 338 338 339 339 336 331 329 330 330 328 327 326 323 321 321 320 319 320 322 323 322 320 318
162 157 161 170 168 156 150 152 155 157 169 181 179 170 176 188 193 194 196 200 207 199 179 157 79 9 10 3 352 349 352 352 347 328 300 308 341 346 336 337 352 1 357 2 7 1 354 353 351 348 347 346 343 342 341 340 338 337 336 335 334 333 333 335 335 332 328 325 323 324 325 324 323 323 320 318 318 317 316 316 318 318 317 317 315
185 184 185 189 179 154 155 170 174 165 172 181 176 173 177 180 185 193 196 195 202 208 206 213 225 215 139 40 11 356 352 1 30 34 3 4 8 354 336 339 349 346 344 356 358 348 343 344 342 339 338 337 336 336 335 334 332 331 331 331 329 327 327 327 325 322 319 318 318 320 322 322 321 321 319 316 315 314 313 314 314 313 313 313 310
176 173 169 165 158 161 176 186 181 175 180 182 175 173 176 174 176 188 191 188 197 208 210 218 231 228 228 342 349 333 316 283 236 230 299 345 352 343 334 334 334 331 337 346 344 337 333 332 331 331 329 328 328 328 328 327 327 327 327 325 321 319 320 319 318 316 316 316 317 318 319 319 319 319 318 315 314 313 313 314 313 311 311 311 309
179 182 169 159 158 170 181 184 178 176 179 181 177 175 177 176 178 185 185 183 195 209 213 214 222 242 269 302 326 322 306 282 248 248 283 306 318 324 326 324 322 322 326 329 329 327 326 323 323 324 322 320 320 320 320 320 320 320 320 317 315 315 317 316 314 315 315 315 316 318 318 316 316 316 315 313 312 312 312 312 311 309 308 307 306
179 183 177 173 175 179 178 179 179 177 178 181 180 178 178 180 184 188 187 189 198 206 212 220 231 242 255 289 330 334 324 314 307 306 303 298 302 310 313 312 313 315 315 315 319 321 320 320 320 319 316 315 316 316 315 315 315 314 314 313 312 312 312 310 309 310 312 313 314 315 314 313 314 314 313 311 310 310 308 307 306 305 304 303 304
170 168 169 174 178 176 175 180 181 176 175 178 176 174 175 179 186 193 194 193 198 201 204 216 228 223 231 275 306 311 307 307 308 302 299 300 298 298 301 302 304 307 305 306 310 313 314 315 315 314 312 313 313 312 312 311 311 311 311 310 310 308 307 306 306 306 307 309 311 311 311 312 313 312 309 308 307 306 304 303 303 303 302 301 301
174 166 165 171 175 176 174 172 167 163 166 168 165 165 169 177 187 196 199 200 205 205 205 215 228 218 229 283 308 302 282 282 289 282 281 290 289 288 293 295 295 299 301 301 303 306 308 311 311 310 310 310 310 310 309 308 307 307 307 306 306 306 305 304 305 305 305 305 307 309 309 309 309 308 306 306 305 304 303 303 303 302 301 300 300
175 168 164 167 172 172 164 157 156 160 164 166 163 164 172 181 189 191 191 196 205 212 213 217 223 213 218 279 323 311 262 263 277 273 272 280 282 283 287 287 288 292 293 292 295 300 304 306 306 305 304 304 305 305 305 304 305 305 304 303 303 303 302 303 303 304 304 305 306 307 308 308 308 307 306 306 306 305 304 304 302 301 301 300 301
171 166 163 162 162 159 154 154 159 161 161 162 164 168 176 183 188 190 193 193 198 212 221 219 219 217 224 255 302 296 260 266 276 272 272 277 279 280 281 282 286 291 289 286 289 296 300 302 301 300 299 299 299 299 300 299 301 301 302 302 302 300 300 302 302 303 305 307 308 309 309 308 308 307 306 307 308 307 305 304 303 302 301 300 300
171 167 166 162 160 160 159 158 160 161 163 166 168 171 179 186 186 188 191 188 190 205 217 215 220 247 255 263 278 284 282 280 278 276 279 283 282 281 285 289 292 293 288 285 288 294 299 301 300 298 298 297 296 296 296 295 295 296 297 298 299 300 303 308 311 312 314 314 313 312 310 308 306 306 305 306 307 306 304 304 303 302 301 300 298
174 172 170 165 162 163 161 160 162 166 171 174 171 171 177 180 178 180 184 183 192 206 210 211 225 243 256 268 279 286 291 292 288 285 287 287 285 288 294 300 300 295 288 289 293 297 298 298 298 297 298 297 296 296 295 293 293 294 294 296 297 298 302 310 316 318 318 315 312 310 308 305 304 303 303 303 304 303 302 302 302 301 299 298 297
175 173 171 166 162 161 160 161 165 169 170 172 171 170 170 169 170 174 176 178 196 212 216 225 236 244 254 270 283 288 290 291 289 288 288 288 288 293 303 308 304 296 293 294 296 297 297 297 298 297 297 297 296 296 295 293 293 293 293 294 296 297 298 303 309 313 315 313 309 306 304 302 301 301 301 302 302 301 301 301 301 299 299 298 298
176 173 169 165 163 163 161 160 164 167 165 164 166 168 167 169 174 180 178 181 195 213 226 234 244 261 277 282 284 285 286 289 290 289 290 289 288 294 305 308 301 297 297 297 298 298 298 298 298 297 297 298 298 297 296 295 295 294 292 291 293 296 300 305 309 312 313 312 308 304 302 300 299 299 299 300 299 299 300 300 300 300 300 299 298
176 171 166 165 165 163 161 162 164 165 164 162 164 168 169 171 174 178 180 185 194 206 220 232 248 280 285 283 284 285 287 289 289 288 289 290 289 293 300 301 299 297 298 298 299 300 300 298 298 299 299 298 298 299 299 297 296 295 293 291 294 298 302 305 307 311 314 314 311 306 303 300 299 297 297 297 297 297 297 298 299 301 302 301 300
175 169 165 166 164 159 158 160 161 160 160 162 164 166 168 172 175 174 177 187 190 189 195 210 236 268 276 278 284 286 286 287 289 288 289 290 291 292 295 296 296 297 298 298 298 299 299 298 300 300 300 300 301 302 300 300 300 299 294 292 294 298 301 302 307 317 321 319 314 310 305 300 299 298 297 297 297 297 296 298 301 303 303 303 302
173 168 163 163 161 157 158 160 159 158 161 164 164 166 170 175 175 170 173 187 190 181 184 220 252 276 282 284 288 290 288 289 290 290 289 290 290 291 292 292 293 294 295 295 297 297 297 297 298 298 298 301 302 300 299 302 302 295 290 293 299 305 308 311 316 320 320 317 314 312 306 298 296 297 297 297 298 298 298 299 300 300 300 300 300
Height
845 847 849 851 853 854 856 858 860 861 862 864 865 866 867 868 869 869 870 871 871 872 873 874 874 875 875 876 877 877 878 879 879 879 880 880 880 881 881 881 882 882 882 882 882 882 882 882 882 882 882 882 882 882 881 881 881 881 881 881 881 881 880 881 880 878 877 876 875 874 873 872 871 870 869 868 866 865 864 863 862 860 859 857 856
843 845 847 849 851 853 855 856 858 859 861 862 863 864 866 866 867 868 869 870 870 871 872 872 873 874 875 875 876 877 877 878 878 879 879 879 879 880 880 880 881 881 881 881 881 881 881 881 881 881 881 881 881 881 880 880 880 879 879 879 879 879 879 879 879 877 876 875 874 873 872 871 870 869 869 867 866 865 863 862 861 859 858 857 856
841 843 845 847 849 851 853 854 856 857 859 860 861 862 863 864 866 867 867 868 869 870 870 871 872 873 874 875 875 876 876 877 877 878 878 879 879 879 879 879 880 880 880 880 880 880 880 880 880 880 880 880 880 880 880 879 879 879 879 879 879 878 878 878 878 877 875 874 873 872 871 870 870 868 868 866 865 864 862 861 860 858 857 856 855
839 841 843 845 847 849 851 852 854 855 856 857 859 860 861 862 864 865 866 866 867 868 869 870 871 872 873 873 874 875 875 875 876 876 877 877 878 878 878 879 879 879 879 879 879 879 879 879 879 879 879 879 879 879 878 878 879 878 878 878 878 877 877 877 877 876 875 873 873 872 870 870 869 868 867 865 864 863 862 860 859 858 857 855 854
837 839 841 843 845 847 848 850 852 853 854 855 856 858 859 860 861 863 864 865 866 867 868 869 870 871 871 872 873 873 874 874 875 875 875 876 876 877 877 877 877 877 878 878 877 878 878 878 878 878 878 878 877 877 877 877 877 877 877 876 876 876 876 876 875 875 874 873 871 871 870 868 867 867 866 864 863 862 861 859 858 857 856 854 853
836 838 840 841 843 845 846 848 850 851 852 853 854 856 857 859 860 861 862 863 864 865 866 868 869 869 870 871 871 872 872 873 874 874 874 875 875 875 875 876 876 876 876 876 876 876 876 876 877 877 877 876 876 876 876 876 876 876 875 875 875 875 874 874 874 873 872 871 870 869 868 867 866 865 864 864 862 861 859 858 857 856 855 853 852
833 836 838 839 841 843 845 846 848 849 851 852 853 854 855 857 858 859 861 862 863 864 865 866 867 868 869 870 870 871 871 872 873 873 873 873 874 874 874 874 874 874 874 874 875 875 875 875 875 875 875 875 875 875 875 875 875 874 874 874 874 873 873 872 872 871 870 869 868 867 866 865 865 864 863 862 861 860 859 857 856 855 854 852 851
831 833 835 837 838 840 842 845 846 848 850 851 852 853 854 856 857 858 860 861 862 862 863 864 865 866 867 868 869 870 870 871 871 872 872 872 872 873 873 873 873 873 873 873 873 873 873 873 873 873 873 874 874 874 874 873 873 873 873 872 872 872 871 871 870 870 869 868 866 865 864 864 863 862 862 861 860 859 858 857 855 854 853 851 850
829 831 832 834 836 838 840 842 844 847 848 850 851 852 853 854 856 857 859 860 861 862 862 863 864 865 866 867 868 868 869 869 870 870 870 871 871 871 871 872 872 871 872 871 872 871 871 871 871 871 871 872 872 872 872 872 872 872 872 871 871 871 870 870 869 868 868 866 865 864 863 863 861 861 860 859 858 857 856 856 854 852 851 850 848
828 829 831 833 835 836 838 840 842 844 846 848 850 851 852 853 854 856 858 859 860 861 862 863 863 864 865 866 867 867 868 868 868 869 869 870 870 870 870 870 870 871 871 870 870 870 869 869 869 869 870 870 870 870 870 870 870 870 870 870 870 870 869 869 868 867 867 865 864 863 862 861 860 859 859 858 857 855 855 854 853 851 850 848 846
827 829 830 831 833 835 837 839 840 842 844 846 847 849 850 852 853 855 856 858 859 860 861 862 863 863 864 864 865 866 866 866 866 867 868 869 869 869 869 869 869 869 869 869 869 868 868 867 867 867 867 868 868 868 868 868 868 868 868 868 868 868 868 867 867 866 865 864 863 862 861 859 859 858 858 856 855 854 854 853 852 850 849 847 844
827 828 829 831 832 833 835 837 839 841 842 844 846 847 849 851 852 853 855 856 858 859 860 861 862 862 862 863 863 864 863 863 864 866 867 867 867 868 868 868 867 867 867 867 867 866 866 866 865 865 865 865 866 866 866 866 866 866 866 866 866 866 865 865 865 865 864 863 862 861 860 859 858 858 857 855 854 854 853 852 851 849 848 846 843
826 827 828 830 831 832 834 836 837 839 841 843 845 846 848 850 851 852 854 855 856 857 858 859 860 861 861 862 862 862 862 862 863 864 865 865 866 866 866 866 865 865 865 865 865 865 865 865 865 864 864 864 865 865 865 864 864 864 863 863 863 863 863 863 863 863 862 862 860 859 859 858 857 856 856 855 854 853 851 850 849 848 846 844 842
824 826 827 829 830 831 833 834 836 838 839 841 843 844 846 847 849 850 851 852 854 856 857 858 858 860 860 861 861 861 861 861 862 862 863 863 864 864 864 864 864 863 864 863 863 863 863 864 863 863 863 863 863 863 863 863 863 862 862 861 860 860 860 860 860 859 859 859 858 857 856 856 855 854 854 854 852 851 849 847 846 845 844 842 840
823 824 825 827 828 829 831 833 835 837 838 840 841 841 843 844 846 849 848 847 849 852 854 856 857 858 859 860 860 860 860 860 861 861 861 862 862 862 863 863 862 862 862 862 862 862 862 862 862 862 862 862 862 861 862 862 861 861 860 859 859 858 858 857 857 857 857 856 855 855 854 854 853 852 852 851 850 849 847 845 844 843 841 839 837
823 823 824 826 827 828 830 832 834 836 838 839 840 840 841 842 844 848 848 846 846 849 852 854 855 857 858 859 860 860 859 859 859 859 860 860 860 861 861 861 861 861 861 861 861 860 860 860 861 861 861 860 859 859 859 859 859 859 858 858 857 856 855 855 854 854 854 853 853 852 851 851 850 849 849 848 847 845 844 843 842 840 838 835 833
825 825 825 826 827 828 829 831 833 836 838 839 840 841 842 842 845 848 848 846 846 848 851 853 855 856 857 858 859 859 858 858 858 858 859 859 859 860 860 860 860 860 860 860 860 859 859 859 859 859 859 858 858 858 858 857 857 857 856 856 855 854 853 852 852 851 851 850 849 849 848 847 846 845 844 844 843 842 841 839 838 837 835 832 829
827 826 826 826 827 828 829 831 833 835 837 838 839 840 842 844 847 848 847 846 846 848 850 852 854 855 857 858 859 859 858 858 858 858 858 858 858 859 860 859 859 859 859 859 859 858 858 858 858 858 857 857 857 857 857 857 856 856 855 854 853 852 851 851 850 850 849 848 847 846 845 844 842 841 840 839 839 839 837 836 835 834 831 828 826
827 827 827 828 828 829 830 831 832 835 837 838 839 840 843 845 847 848 847 846 847 849 851 852 854 856 858 860 860 860 859 858 858 857 857 857 858 858 858 858 858 858 858 858 858 858 857 857 857 857 856 856 857 856 856 856 856 855 854 853 852 851 850 849 849 849 848 847 846 845 844 842 841 839 837 836 835 835 833 832 832 831 828 827 826
828 828 829 829 830 831 832 834 834 835 838 840 841 843 845 845 846 848 848 848 848 850 852 854 855 857 859 860 861 860 859 859 859 858 858 857 857 858 858 858 858 858 858 858 858 858 858 857 857 856 856 856 856 856 855 855 855 854 853 852 851 849 848 848 847 847 846 845 845 843 842 841 839 837 835 834 832 831 831 830 830 829 827 825 825
830 830 830 831 834 835 835 837 838 839 841 842 844 846 847 846 847 848 849 850 851 852 854 855 856 858 860 860 861 861 860 860 860 859 859 858 858 858 858 858 859 859 859 859 858 858 858 858 857 856 855 855 855 854 854 854 854 853 853 852 850 848 847 846 845 845 844 843 842 841 840 839 837 836 834 833 831 830 829 829 828 827 825 824 823
831 831 832 835 838 838 838 840 841 843 845 846 846 847 847 848 848 849 851 852 853 854 856 857 858 859 860 861 861 861 862 862 861 861 860 859 859 859 859 859 859 859 859 860 859 859 860 859 858 856 855 854 854 854 853 853 853 853 852 851 849 848 847 846 845 844 843 842 841 839 838 837 836 835 834 833 831 829 828 828 826 825 824 823 821
833 834 836 839 841 841 841 842 844 846 847 848 848 848 849 850 851 852 854 854 855 856 858 859 860 861 862 863 863 863 864 864 863 862 861 860 860 860 860 860 860 860 860 861 861 861 861 860 858 856 855 854 854 854 853 853 852 852 851 850 849 848 847 846 845 844 842 841 840 839 837 836 835 835 834 833 831 829 828 827 825 824 822 821 820
836 837 839 842 843 843 843 844 847 849 849 850 850 850 851 852 854 855 856 857 857 858 860 861 862 862 864 864 865 865 865 865 864 863 862 862 862 862 862 861 861 861 861 861 861 861 860 859 857 855 854 854 854 854 853 853 852 852 851 850 849 847 846 846 845 843 842 842 840 839 837 836 835 834 833 831 830 828 827 826 824 822 821 819 817
839 840 842 843 845 845 845 847 850 851 851 851 852 853 853 854 855 857 858 858 858 859 861 862 862 863 865 866 866 867 867 866 865 864 864 864 864 863 863 863 862 862 862 862 862 861 860 858 857 855 854 854 854 854 854 853 852 851 850 849 848 847 846 846 845 844 843 843 841 840 839 837 836 835 833 832 830 828 827 825 823 821 819 817 816
842 843 844 845 846 847 848 850 851 852 852 852 854 855 856 855 856 857 858 859 859 860 861 862 862 863 864 866 867 868 868 867 867 867 866 866 866 865 865 864 864 863 863 863 862 861 859 858 856 855 854 854 854 854 854 853 852 851 849 848 848 847 847 846 845 845 844 843 843 841 840 839 837 836 834 832 831 829 827 825 823 821 819 817 815
843 844 845 846 848 849 850 851 853 853 854 854 856 858 858 858 858 859 860 861 861 862 862 862 862 863 864 865 866 868 868 868 868 868 868 868 867 867 866 865 865 864 864 863 862 860 859 858 856 855 855 854 854 854 853 852 851 850 849 848 848 847 846 846 845 844 844 843 843 842 840 839 837 836 834 832 831 830 828 826 824 822 820 818 815
844 845 846 847 848 850 851 852 853 854 855 856 857 858 859 859 860 860 861 862 862 863 863 862 863 863 863 864 865 866 867 868 868 868 868 867 867 867 866 866 865 865 864 862 861 860 859 858 857 856 856 855 855 854 853 852 851 850 849 849 848 848 847 846 845 844 844 843 842 841 840 839 837 836 835 833 832 830 829 826 825 823 821 819 816
845 846 847 848 849 851 851 853 854 855 856 857 858 858 859 860 861 861 861 862 862 863 863 863 863 864 864 864 865 865 867 868 868 868 867 867 867 867 866 866 865 864 863 861 860 859 859 858 857 857 856 855 854 853 852 852 851 850 850 849 849 848 847 847 846 845 844 843 842 841 840 839 838 836 835 833 832 831 829 827 825 823 821 819 816
846 847 848 849 850 851 852 853 854 856 857 858 859 860 861 861 862 862 862 863 863 863 863 864 864 864 865 865 865 866 867 868 868 867 867 867 866 866 866 865 864 863 862 860 859 859 859 858 857 857 856 855 854 854 853 852 851 851 850 850 849 849 848 847 846 845 844 843 842 842 840 839 838 836 835 834 832 830 829 827 825 824 821 819 816
848 848 849 850 851 851 852 854 855 856 858 860 861 862 863 863 864 864 864 864 864 864 864 865 865 865 866 866 866 867 867 868 868 868 867 867 867 866 865 865 864 863 861 860 859 859 859 858 857 857 856 856 855 854 854 853 852 852 851 850 850 849 848 848 846 845 845 844 843 842 841 839 838 837 835 834 832 830 829 827 826 824 822 820 817
849 849 850 851 852 853 854 855 856 858 859 860 861 862 864 865 866 866 867 866 866 866 866 866 866 866 867 867 868 868 868 868 868 868 868 868 867 867 866 865 864 863 861 860 860 859 859 858 858 857 857 856 856 855 855 854 853 853 852 851 851 850 849 848 847 846 845 844 843 842 841 840 838 837 835 834 832 830 829 827 826 824 822 820 818
851 851 852 853 854 855 856 856 858 859 859 860 861 861 862 864 865 867 868 868 868 868 867 867 867 868 868 868 868 868 869 869 869 869 868 868 867 867 866 865 864 863 862 861 860 860 859 859 859 858 858 857 857 856 856 855 854 854 853 852 851 850 850 849 847 847 846 845 843 842 841 840 839 837 836 834 833 831 829 828 826 824 822 820 818
852 853 854 855 855 856 857 858 859 859 860 860 860 861 861 862 863 865 866 867 867 868 868 868 868 868 868 868 868 868 868 869 869 869 868 868 867 867 865 864 863 863 862 862 862 861 861 860 860 859 859 858 858 857 856 855 855 854 853 852 851 851 850 849 848 847 846 845 844 843 841 840 839 837 836 834 833 831 830 828 826 824 822 820 818
854 855 856 856 857 857 858 858 859 859 860 860 861 861 862 862 863 863 864 865 866 867 867 868 868 868 868 868 867 867 868 868 868 868 867 867 867 866 865 863 863 862 862 863 862 862 862 861 861 860 860 859 858 857 857 856 855 854 853 852 851 850 850 849 848 847 846 845 844 843 841 840 839 838 836 835 833 831 830 828 826 824 823 821 818
854 855 856 857 857 858 858 859 859 860 860 861 861 862 863 863 863 864 864 864 865 866 867 868 868 868 868 868 868 868 867 867 867 867 867 867 867 866 864 864 863 863 863 863 863 863 862 862 861 861 860 859 859 858 857 856 855 854 853 852 851 850 849 849 848 847 846 845 844 843 841 840 839 838 836 835 833 832 830 828 826 825 823 821 819
854 855 856 856 857 857 858 859 860 860 861 861 862 863 863 864 864 864 864 865 865 865 866 867 868 868 868 868 869 868 868 867 867 867 867 866 866 865 865 864 864 864 863 863 863 863 863 862 862 861 861 860 859 858 857 856 855 854 853 852 851 850 849 848 848 847 846 845 844 843 841 840 839 838 836 835 833 831 830 828 826 824 822 821 818
854 854 855 856 857 858 859 859 860 861 861 862 863 863 864 864 864 864 865 865 866 866 866 867 867 867 867 868 869 869 868 867 866 866 866 866 865 865 865 864 864 864 863 863 864 864 863 863 862 862 861 860 860 859 858 857 856 854 853 852 851 850 849 849 848 847 846 844 843 842 842 840 839 838 836 835 833 831 829 828 826 824 821 819 817
854 855 855 856 857 858 859 859 859 860 861 861 862 863 863 864 864 865 865 865 866 866 866 866 867 868 868 869 869 868 867 866 865 865 866 865 866 866 865 865 865 864 864 864 864 864 864 863 862 862 861 860 860 859 858 857 856 855 854 853 852 851 850 849 848 847 846 845 843 842 841 840 839 838 836 835 833 831 829 827 826 823 821 819 816
855 856 856 857 857 858 858 858 859 859 859 860 861 862 863 863 864 864 865 865 866 866 866 867 867 868 869 869 869 868 867 866 865 865 866 866 866 866 866 866 865 865 865 865 864 864 863 863 862 862 861 860 859 859 858 857 856 855 854 853 851 851 850 849 848 847 846 845 844 843 842 840 839 837 836 834 833 831 829 827 825 823 821 818 816
855 856 857 857 857 857 858 858 858 858 859 859 860 861 862 864 864 865 865 865 865 866 867 867 868 868 868 869 869 869 868 867 866 866 866 866 866 866 866 866 866 865 865 865 864 864 863 863 862 862 861 860 859 858 857 857 856 854 853 852 851 850 850 849 847 847 845 844 844 843 842 840 839 837 835 834 832 830 828 826 824 822 819 817 815
855 856 856 856 857 857 857 857 858 858 859 859 860 861 863 864 864 865 865 865 866 866 866 867 868 868 868 868 868 869 868 868 867 867 866 866 866 866 866 866 866 866 865 865 865 864 864 863 862 862 861 860 859 858 857 856 855 854 853 852 851 850 850 849 847 846 845 844 843 842 841 840 838 837 835 833 831 829 827 825 823 821 818 816 814
855 855 855 856 856 856 856 857 858 858 859 860 861 862 863 864 864 865 865 866 866 866 866 867 867 867 867 867 868 868 868 867 867 867 867 867 867 866 866 866 866 865 865 865 865 864 864 863 862 862 861 860 859 858 857 856 855 854 853 852 851 851 850 849 848 846 845 844 843 842 841 839 837 835 834 832 830 828 826 823 821 819 817 814 812
855 855 855 856 856 856 856 857 857 858 859 860 861 863 864 864 864 864 865 865 866 866 866 866 867 867 867 867 867 867 867 867 867 867 867 867 866 866 866 866 866 865 865 865 865 865 864 863 862 861 860 860 859 858 857 856 855 854 854 852 851 851 850 849 848 846 845 844 843 842 840 839 837 835 833 831 829 827 825 822 820 818 815 813 811
854 854 855 855 856 856 857 857 858 859 860 861 861 862 863 863 863 864 864 865 865 866 866 866 866 867 867 867 867 867 867 867 867 867 866 866 866 866 866 865 865 865 865 865 865 864 864 863 862 861 860 859 858 857 856 856 855 854 853 853 852 851 850 849 847 846 845 844 843 842 840 838 836 834 832 830 828 826 823 821 819 816 814 811 809
854 854 854 855 856 856 857 857 858 859 859 860 860 861 862 862 863 863 864 864 865 865 865 866 866 867 867 866 867 867 866 866 866 866 866 866 865 865 865 865 864 864 864 864 864 863 863 862 861 860 859 858 857 856 855 855 854 853 853 852 851 850 848 847 845 845 845 844 843 841 839 837 835 833 831 829 827 825 822 820 817 815 812 810 807
854 854 854 855 855 856 856 857 858 858 859 860 860 860 861 862 862 863 864 864 865 865 865 865 865 866 866 866 866 866 866 866 866 865 865 865 865 864 864 864 863 863 863 863 863 862 861 861 860 859 858 857 856 855 854 854 853 852 852 851 850 847 846 846 845 845 844 844 842 841 839 836 834 832 829 827 826 823 821 818 816 813 811 808 805
853 854 854 854 855 856 856 857 858 858 859 860 860 861 861 862 862 863 863 864 864 864 864 864 865 865 865 866 866 866 866 866 865 865 865 865 864 864 863 863 863 863 862 862 861 861 860 859 858 857 857 856 855 854 853 852 851 851 851 850 847 845 845 845 844 844 843 842 841 839 837 835 832 830 828 826 824 821 819 816 814 811 809 806 803
853 853 854 854 855 855 856 857 857 858 858 859 860 861 861 861 862 862 863 863 864 864 864 864 865 865 865 866 866 866 865 865 865 864 864 864 863 863 863 862 862 862 861 861 860 859 859 858 857 856 855 854 853 852 852 851 850 850 849 848 846 845 845 844 843 842 841 840 838 837 835 833 831 829 827 824 822 820 817 815 812 809 807 804 802
852 852 853 854 854 855 856 856 857 857 858 859 859 860 860 861 862 862 862 863 863 863 864 864 865 865 865 865 865 865 865 865 864 864 864 863 863 863 862 862 861 861 860 860 859 858 857 857 856 855 854 853 852 851 850 850 849 848 847 846 845 844 844 843 841 840 839 838 836 834 832 831 829 827 825 823 820 818 815 813 811 808 806 803 801
851 852 853 853 854 855 855 856 856 857 858 858 859 859 860 861 861 861 862 863 863 863 864 864 864 864 865 865 865 865 865 864 864 864 863 863 862 862 861 861 860 860 859 859 858 857 856 855 854 854 853 852 851 850 850 849 848 846 845 845 844 843 842 841 840 839 837 836 834 832 830 828 827 825 822 820 818 815 813 811 809 807 804 802 799